User: anonymous   Login
Location: Unspecified
(0.0000°N, 0.0000°E)
Time: 21:04:24
(UTC+00:00)
Language:

ONEWEB-0436 - Orbit

View from above orbital plane
View from above orbital plane
View from above satellite
View from above satellite

Ground track
Ground track

The orbit is defined by the following mean orbital elements,

1 51633U          26145.12762062 +.00000000 +00000-0 +57811-5 0 00002
2 51633  87.9161  10.4298 0001683  78.4707 281.6614 13.17649290    07
Epoch (UTC): 25 May 2026 03:03:46
Eccentricity: 0.0001683
inclination: 87.9161°
perigee height: 1192 km
apogee height: 1195 km
right ascension of ascending node: 10.4298°
argument of perigee: 78.4707°
revolutions per day: 13.17649290
mean anomaly at epoch: 281.6614°

The dashed part of the orbit path shows where the satellite is in the earth's shadow,  

DLR